Time,TemperatureF,DewpointF,PressureIn,WindDirection,WindDirectionDegrees,WindSpeedMPH,WindSpeedGustMPH,Humidity,HourlyPrecipIn,Conditions,Clouds,dailyrainin,SoftwareType,DateUTC
2013-01-16 00:02:00,28.0,24.0,30.16,North,5,4.0,7.0,86,0.00,,,0.00,,2013-01-16 06:02:00,
2013-01-16 00:12:00,28.0,24.0,30.16,North,5,4.0,7.0,86,0.00,,,0.00,,2013-01-16 06:12:00,
2013-01-16 00:22:00,28.0,25.0,30.15,North,360,4.0,7.0,87,0.00,,,0.00,,2013-01-16 06:22:00,
2013-01-16 00:32:00,28.0,24.0,30.13,North,5,5.0,7.0,86,0.00,,,0.00,,2013-01-16 06:32:00,
2013-01-16 00:43:00,28.0,24.0,30.13,North,5,5.0,7.0,86,0.00,,,0.00,,2013-01-16 06:43:00,
2013-01-16 00:53:00,28.0,25.0,30.14,NNE,16,1.0,5.0,87,0.00,,,0.00,,2013-01-16 06:53:00,
2013-01-16 01:02:00,28.0,25.0,30.14,North,5,0.0,5.0,87,0.00,,,0.00,,2013-01-16 07:02:00,
2013-01-16 01:12:00,28.0,25.0,30.14,North,5,0.0,5.0,87,0.00,,,0.00,,2013-01-16 07:12:00,
2013-01-16 01:22:00,28.0,25.0,30.14,North,5,0.0,2.0,87,0.00,,,0.00,,2013-01-16 07:22:00,
2013-01-16 01:32:00,28.0,25.0,30.15,NW,311,0.0,2.0,88,0.00,,,0.00,,2013-01-16 07:32:00,
2013-01-16 01:42:00,28.0,25.0,30.15,NW,311,0.0,2.0,88,0.00,,,0.00,,2013-01-16 07:42:00,
2013-01-16 01:52:00,28.0,25.0,30.15,NNW,333,2.0,6.0,88,0.00,,,0.00,,2013-01-16 07:52:00,
2013-01-16 02:02:00,28.0,25.0,30.15,NW,318,1.0,5.0,87,0.00,,,0.00,,2013-01-16 08:02:00,
2013-01-16 02:12:00,28.0,25.0,30.15,NW,318,1.0,5.0,87,0.00,,,0.00,,2013-01-16 08:12:00,
2013-01-16 02:22:00,28.0,24.0,30.15,NNW,339,1.0,7.0,86,0.00,,,0.00,,2013-01-16 08:22:00,
2013-01-16 02:32:00,28.0,25.0,30.15,NW,324,2.0,6.0,87,0.00,,,0.00,,2013-01-16 08:32:00,
2013-01-16 02:42:00,28.0,25.0,30.15,NW,324,2.0,6.0,87,0.00,,,0.00,,2013-01-16 08:42:00,
2013-01-16 02:53:00,28.0,25.0,30.15,NNW,336,1.0,6.0,87,0.00,,,0.00,,2013-01-16 08:53:00,
2013-01-16 03:02:00,28.0,25.0,30.14,WNW,294,1.0,5.0,87,0.00,,,0.00,,2013-01-16 09:02:00,
2013-01-16 03:12:00,28.0,25.0,30.14,WNW,294,1.0,5.0,87,0.00,,,0.00,,2013-01-16 09:12:00,
2013-01-16 03:22:00,28.0,25.0,30.14,NW,323,3.0,6.0,87,0.00,,,0.00,,2013-01-16 09:22:00,
2013-01-16 03:32:00,28.0,25.0,30.14,NW,325,2.0,7.0,88,0.00,,,0.00,,2013-01-16 09:32:00,
2013-01-16 03:42:00,28.0,25.0,30.14,NW,325,2.0,7.0,88,0.00,,,0.00,,2013-01-16 09:42:00,
2013-01-16 03:53:00,28.0,25.0,30.14,NW,314,3.0,7.0,88,0.00,,,0.00,,2013-01-16 09:53:00,
2013-01-16 04:02:00,28.0,25.0,30.14,WNW,298,3.0,7.0,88,0.00,,,0.00,,2013-01-16 10:02:00,
2013-01-16 04:12:00,28.0,25.0,30.14,WNW,298,3.0,7.0,88,0.00,,,0.00,,2013-01-16 10:12:00,
2013-01-16 04:22:00,28.0,25.0,30.14,NW,310,4.0,7.0,87,0.00,,,0.00,,2013-01-16 10:22:00,
2013-01-16 04:32:00,28.0,25.0,30.12,NNW,327,4.0,8.0,88,0.00,,,0.00,,2013-01-16 10:32:00,
2013-01-16 04:42:00,28.0,25.0,30.12,NNW,327,4.0,8.0,88,0.00,,,0.00,,2013-01-16 10:42:00,
2013-01-16 04:53:00,28.0,25.0,30.12,NNW,338,4.0,9.0,87,0.00,,,0.00,,2013-01-16 10:53:00,
2013-01-16 05:02:00,28.0,25.0,30.11,NW,321,5.0,8.0,87,0.00,,,0.00,,2013-01-16 11:02:00,
2013-01-16 05:12:00,28.0,25.0,30.11,NW,321,5.0,8.0,87,0.00,,,0.00,,2013-01-16 11:12:00,
2013-01-16 05:22:00,28.0,25.0,30.13,NW,307,2.0,6.0,87,0.00,,,0.00,,2013-01-16 11:22:00,
2013-01-16 05:32:00,28.0,25.0,30.13,NW,313,2.0,8.0,87,0.00,,,0.00,,2013-01-16 11:32:00,
2013-01-16 05:42:00,28.0,25.0,30.13,NW,313,2.0,8.0,87,0.00,,,0.00,,2013-01-16 11:42:00,
2013-01-16 05:53:00,28.0,25.0,30.12,NW,323,5.0,9.0,87,0.00,,,0.00,,2013-01-16 11:53:00,
2013-01-16 06:03:00,28.0,25.0,30.12,NW,322,5.0,8.0,87,0.00,,,0.00,,2013-01-16 12:03:00,
2013-01-16 06:13:00,28.0,25.0,30.12,NW,322,5.0,8.0,87,0.00,,,0.00,,2013-01-16 12:13:00,
2013-01-16 06:22:00,28.0,25.0,30.11,WNW,292,5.0,8.0,87,0.00,,,0.00,,2013-01-16 12:22:00,
2013-01-16 06:33:00,28.0,24.0,30.13,NW,309,4.0,12.0,86,0.00,,,0.00,,2013-01-16 12:33:00,
2013-01-16 06:43:00,28.0,24.0,30.13,NW,309,4.0,12.0,86,0.00,,,0.00,,2013-01-16 12:43:00,
2013-01-16 06:53:00,28.0,25.0,30.14,NW,324,6.0,10.0,87,0.00,,,0.00,,2013-01-16 12:53:00,
2013-01-16 07:03:00,28.0,25.0,30.14,NW,319,3.0,9.0,87,0.00,,,0.00,,2013-01-16 13:03:00,
2013-01-16 07:12:00,28.0,25.0,30.14,NW,319,3.0,9.0,87,0.00,,,0.00,,2013-01-16 13:12:00,
2013-01-16 07:22:00,28.0,25.0,30.16,WNW,297,2.0,9.0,87,0.00,,,0.00,,2013-01-16 13:22:00,
2013-01-16 07:33:00,28.0,24.0,30.16,WNW,300,3.0,8.0,86,0.00,,,0.00,,2013-01-16 13:33:00,
2013-01-16 07:43:00,28.0,24.0,30.16,WNW,300,3.0,8.0,86,0.00,,,0.00,,2013-01-16 13:43:00,
2013-01-16 07:53:00,28.0,25.0,30.16,WNW,290,1.0,4.0,87,0.00,,,0.00,,2013-01-16 13:53:00,
2013-01-16 08:03:00,28.0,24.0,30.16,WNW,286,2.0,6.0,86,0.00,,,0.00,,2013-01-16 14:03:00,
2013-01-16 08:12:00,28.0,24.0,30.16,WNW,286,2.0,6.0,86,0.00,,,0.00,,2013-01-16 14:12:00,
2013-01-16 08:23:00,28.0,24.0,30.17,WNW,291,1.0,3.0,86,0.00,,,0.00,,2013-01-16 14:23:00,
2013-01-16 08:32:00,27.0,24.0,30.16,WNW,292,1.0,3.0,87,0.00,,,0.00,,2013-01-16 14:32:00,
2013-01-16 08:42:00,27.0,24.0,30.16,WNW,292,1.0,3.0,87,0.00,,,0.00,,2013-01-16 14:42:00,
2013-01-16 08:53:00,27.0,23.0,30.16,WNW,299,2.0,8.0,86,0.00,,,0.00,,2013-01-16 14:53:00,
2013-01-16 09:03:00,27.0,24.0,30.16,WNW,287,1.0,6.0,87,0.00,,,0.00,,2013-01-16 15:03:00,
2013-01-16 09:12:00,27.0,24.0,30.16,WNW,287,1.0,6.0,87,0.00,,,0.00,,2013-01-16 15:12:00,
2013-01-16 09:23:00,27.0,24.0,30.17,WNW,296,3.0,6.0,88,0.00,,,0.00,,2013-01-16 15:23:00,
2013-01-16 09:33:00,27.0,23.0,30.17,NW,306,4.0,9.0,86,0.00,,,0.00,,2013-01-16 15:33:00,
2013-01-16 09:43:00,27.0,23.0,30.17,NW,306,4.0,9.0,86,0.00,,,0.00,,2013-01-16 15:43:00,
2013-01-16 09:53:00,28.0,24.0,30.16,NW,306,4.0,8.0,85,0.00,,,0.00,,2013-01-16 15:53:00,
2013-01-16 10:03:00,28.0,24.0,30.15,WNW,288,3.0,7.0,85,0.00,,,0.00,,2013-01-16 16:03:00,
2013-01-16 10:12:00,28.0,24.0,30.15,WNW,288,3.0,7.0,85,0.00,,,0.00,,2013-01-16 16:12:00,
2013-01-16 10:22:00,29.0,25.0,30.15,West,275,2.0,4.0,85,0.00,,,0.00,,2013-01-16 16:22:00,
2013-01-16 10:33:00,28.0,24.0,30.16,WNW,290,2.0,7.0,84,0.00,,,0.00,,2013-01-16 16:33:00,
2013-01-16 10:42:00,28.0,24.0,30.16,WNW,290,2.0,7.0,84,0.00,,,0.00,,2013-01-16 16:42:00,
2013-01-16 10:53:00,29.0,25.0,30.16,WNW,290,2.0,6.0,83,0.00,,,0.00,,2013-01-16 16:53:00,
2013-01-16 11:03:00,29.0,24.0,30.15,WSW,238,3.0,6.0,82,0.00,,,0.00,,2013-01-16 17:03:00,
2013-01-16 11:12:00,29.0,24.0,30.15,WSW,238,3.0,6.0,82,0.00,,,0.00,,2013-01-16 17:12:00,
2013-01-16 11:23:00,30.0,25.0,30.15,SW,217,3.0,5.0,82,0.00,,,0.00,,2013-01-16 17:23:00,
2013-01-16 11:33:00,30.0,25.0,30.14,SW,236,3.0,6.0,81,0.00,,,0.00,,2013-01-16 17:33:00,
2013-01-16 11:43:00,30.0,25.0,30.14,SW,236,3.0,6.0,81,0.00,,,0.00,,2013-01-16 17:43:00,
2013-01-16 11:53:00,30.0,25.0,30.14,WNW,292,3.0,6.0,82,0.00,,,0.00,,2013-01-16 17:53:00,
2013-01-16 12:03:00,30.0,25.0,30.13,WSW,238,3.0,6.0,81,0.00,,,0.00,,2013-01-16 18:03:00,
2013-01-16 12:13:00,30.0,25.0,30.13,WSW,238,3.0,6.0,81,0.00,,,0.00,,2013-01-16 18:13:00,
2013-01-16 12:23:00,31.0,25.0,30.12,SW,236,3.0,7.0,79,0.00,,,0.00,,2013-01-16 18:23:00,
2013-01-16 12:33:00,31.0,25.0,30.11,WSW,242,3.0,7.0,78,0.00,,,0.00,,2013-01-16 18:33:00,
2013-01-16 12:42:00,31.0,25.0,30.11,WSW,242,3.0,7.0,78,0.00,,,0.00,,2013-01-16 18:42:00,
2013-01-16 12:53:00,31.0,25.0,30.11,SW,229,3.0,7.0,78,0.00,,,0.00,,2013-01-16 18:53:00,
2013-01-16 13:03:00,32.0,26.0,30.10,SW,225,3.0,7.0,79,0.00,,,0.00,,2013-01-16 19:03:00,
2013-01-16 13:12:00,32.0,26.0,30.10,SW,225,3.0,7.0,79,0.00,,,0.00,,2013-01-16 19:12:00,
2013-01-16 13:23:00,32.0,25.0,30.09,SW,235,3.0,7.0,76,0.01,,,0.01,,2013-01-16 19:23:00,
2013-01-16 13:33:00,32.0,25.0,30.09,WSW,248,3.0,7.0,74,0.01,,,0.01,,2013-01-16 19:33:00,
2013-01-16 13:43:00,32.0,25.0,30.09,WSW,248,3.0,7.0,74,0.01,,,0.01,,2013-01-16 19:43:00,
2013-01-16 13:53:00,32.0,25.0,30.09,SW,232,4.0,7.0,76,0.01,,,0.01,,2013-01-16 19:53:00,
2013-01-16 14:03:00,33.0,26.0,30.08,WSW,240,5.0,7.0,74,0.01,,,0.01,,2013-01-16 20:03:00,
2013-01-16 14:12:00,33.0,26.0,30.08,WSW,240,5.0,7.0,74,0.01,,,0.01,,2013-01-16 20:12:00,
2013-01-16 14:23:00,33.0,26.0,30.09,WSW,240,4.0,6.0,76,0.00,,,0.01,,2013-01-16 20:23:00,
2013-01-16 14:33:00,33.0,27.0,30.08,SW,225,5.0,8.0,77,0.01,,,0.02,,2013-01-16 20:33:00,
2013-01-16 14:42:00,33.0,27.0,30.08,SW,225,5.0,8.0,77,0.01,,,0.02,,2013-01-16 20:42:00,
2013-01-16 14:53:00,33.0,27.0,30.09,SW,225,5.0,8.0,77,0.01,,,0.02,,2013-01-16 20:53:00,
2013-01-16 15:03:00,33.0,27.0,30.09,SW,234,4.0,8.0,77,0.01,,,0.02,,2013-01-16 21:03:00,
2013-01-16 15:12:00,33.0,27.0,30.09,SW,234,4.0,8.0,77,0.01,,,0.02,,2013-01-16 21:12:00,
2013-01-16 15:22:00,33.0,27.0,30.09,SW,226,6.0,8.0,77,0.01,,,0.02,,2013-01-16 21:22:00,
2013-01-16 15:33:00,33.0,26.0,30.10,SSW,209,5.0,8.0,76,0.00,,,0.02,,2013-01-16 21:33:00,
2013-01-16 15:43:00,33.0,26.0,30.10,SSW,209,5.0,8.0,76,0.00,,,0.02,,2013-01-16 21:43:00,
2013-01-16 15:53:00,33.0,27.0,30.10,SSW,200,5.0,9.0,79,0.00,,,0.02,,2013-01-16 21:53:00,
2013-01-16 16:02:00,32.0,26.0,30.10,SSW,205,7.0,9.0,79,0.00,,,0.02,,2013-01-16 22:02:00,
2013-01-16 16:12:00,32.0,26.0,30.10,SSW,205,7.0,9.0,79,0.00,,,0.02,,2013-01-16 22:12:00,
2013-01-16 16:23:00,32.0,27.0,30.11,SSW,205,6.0,12.0,80,0.00,,,0.02,,2013-01-16 22:23:00,
2013-01-16 16:33:00,32.0,27.0,30.12,SSW,212,5.0,8.0,80,0.00,,,0.02,,2013-01-16 22:33:00,
2013-01-16 16:43:00,32.0,27.0,30.12,SSW,212,5.0,8.0,80,0.00,,,0.02,,2013-01-16 22:43:00,
2013-01-16 16:53:00,32.0,27.0,30.13,SSW,196,4.0,7.0,83,0.00,,,0.02,,2013-01-16 22:53:00,
2013-01-16 17:02:00,31.0,27.0,30.12,SSW,198,4.0,6.0,84,0.00,,,0.02,,2013-01-16 23:02:00,
2013-01-16 17:12:00,31.0,27.0,30.12,SSW,198,4.0,6.0,84,0.00,,,0.02,,2013-01-16 23:12:00,
2013-01-16 17:23:00,31.0,27.0,30.12,SSW,198,1.0,4.0,84,0.00,,,0.02,,2013-01-16 23:23:00,
2013-01-16 17:32:00,31.0,27.0,30.12,SSW,198,2.0,5.0,84,0.00,,,0.02,,2013-01-16 23:32:00,
2013-01-16 17:42:00,31.0,27.0,30.12,SSW,198,2.0,5.0,84,0.00,,,0.02,,2013-01-16 23:42:00,
2013-01-16 17:53:00,30.0,26.0,30.13,SSW,198,1.0,4.0,86,0.00,,,0.02,,2013-01-16 23:53:00,
2013-01-16 18:02:00,30.0,26.0,30.13,SSW,198,2.0,5.0,86,0.00,,,0.02,,2013-01-17 00:02:00,
2013-01-16 18:12:00,30.0,26.0,30.13,SSW,198,2.0,5.0,86,0.00,,,0.02,,2013-01-17 00:12:00,
2013-01-16 18:22:00,30.0,26.0,30.13,SSW,210,4.0,6.0,85,0.00,,,0.02,,2013-01-17 00:22:00,
2013-01-16 18:32:00,30.0,26.0,30.13,SSW,210,4.0,6.0,85,0.00,,,0.02,,2013-01-17 00:32:00,
2013-01-16 18:42:00,30.0,26.0,30.13,SSW,210,4.0,6.0,85,0.00,,,0.02,,2013-01-17 00:42:00,
2013-01-16 18:52:00,31.0,27.0,30.14,SW,214,3.0,7.0,85,0.00,,,0.02,,2013-01-17 00:52:00,
2013-01-16 19:02:00,30.0,26.0,30.14,SW,227,2.0,5.0,84,0.00,,,0.02,,2013-01-17 01:02:00,
2013-01-16 19:12:00,30.0,26.0,30.14,SW,227,2.0,5.0,84,0.00,,,0.02,,2013-01-17 01:12:00,
2013-01-16 19:22:00,30.0,26.0,30.14,SW,223,2.0,5.0,85,0.00,,,0.02,,2013-01-17 01:22:00,
2013-01-16 19:32:00,30.0,26.0,30.16,SW,223,1.0,4.0,85,0.00,,,0.02,,2013-01-17 01:32:00,
2013-01-16 19:42:00,30.0,26.0,30.16,SW,223,1.0,4.0,85,0.00,,,0.02,,2013-01-17 01:42:00,
2013-01-16 19:52:00,30.0,26.0,30.16,SW,232,2.0,5.0,86,0.00,,,0.02,,2013-01-17 01:52:00,
2013-01-16 20:02:00,30.0,26.0,30.16,SW,232,0.0,2.0,86,0.00,,,0.02,,2013-01-17 02:02:00,
2013-01-16 20:12:00,30.0,26.0,30.16,SW,232,0.0,2.0,86,0.00,,,0.02,,2013-01-17 02:12:00,
2013-01-16 20:22:00,30.0,27.0,30.16,SSW,199,2.0,5.0,87,0.00,,,0.02,,2013-01-17 02:22:00,
2013-01-16 20:32:00,30.0,27.0,30.16,SSW,199,0.0,4.0,87,0.00,,,0.02,,2013-01-17 02:32:00,
2013-01-16 20:42:00,30.0,27.0,30.16,SSW,199,0.0,4.0,87,0.00,,,0.02,,2013-01-17 02:42:00,
2013-01-16 20:52:00,30.0,27.0,30.16,SSW,199,0.0,4.0,87,0.00,,,0.02,,2013-01-17 02:52:00,
2013-01-16 21:02:00,30.0,27.0,30.17,SSW,200,1.0,3.0,87,0.00,,,0.02,,2013-01-17 03:02:00,
2013-01-16 21:12:00,30.0,27.0,30.17,SSW,200,1.0,3.0,87,0.00,,,0.02,,2013-01-17 03:12:00,
2013-01-16 21:22:00,30.0,27.0,30.16,WSW,244,2.0,5.0,87,0.00,,,0.02,,2013-01-17 03:22:00,
2013-01-16 21:32:00,30.0,27.0,30.17,WSW,244,1.0,2.0,88,0.00,,,0.02,,2013-01-17 03:32:00,
2013-01-16 21:42:00,30.0,27.0,30.17,WSW,244,1.0,2.0,88,0.00,,,0.02,,2013-01-17 03:42:00,
2013-01-16 21:52:00,31.0,28.0,30.16,SW,215,3.0,5.0,87,0.00,,,0.02,,2013-01-17 03:52:00,
2013-01-16 22:02:00,31.0,27.0,30.16,SSW,209,5.0,6.0,86,0.00,,,0.02,,2013-01-17 04:02:00,
2013-01-16 22:12:00,31.0,27.0,30.16,SSW,212,3.0,5.0,84,0.00,,,0.02,,2013-01-17 04:12:00,
2013-01-16 22:22:00,31.0,27.0,30.16,SSW,212,3.0,5.0,84,0.00,,,0.02,,2013-01-17 04:22:00,
2013-01-16 22:32:00,31.0,26.0,30.16,WSW,243,4.0,7.0,82,0.00,,,0.02,,2013-01-17 04:32:00,
2013-01-16 22:42:00,31.0,26.0,30.16,WSW,243,4.0,7.0,82,0.00,,,0.02,,2013-01-17 04:42:00,
2013-01-16 22:52:00,32.0,26.0,30.16,West,260,2.0,6.0,79,0.00,,,0.02,,2013-01-17 04:52:00,
2013-01-16 23:04:00,32.0,26.0,30.16,West,260,2.0,6.0,79,0.00,,,0.02,,2013-01-17 05:04:00,
2013-01-16 23:12:00,32.0,26.0,30.16,West,260,2.0,6.0,79,0.00,,,0.02,,2013-01-17 05:12:00,
2013-01-16 23:22:00,32.0,27.0,30.15,WSW,244,0.0,1.0,82,0.00,,,0.02,,2013-01-17 05:22:00,
2013-01-16 23:33:00,32.0,27.0,30.15,WSW,244,0.0,2.0,80,0.00,,,0.02,,2013-01-17 05:33:00,
2013-01-16 23:43:00,32.0,27.0,30.15,WSW,244,0.0,2.0,80,0.00,,,0.02,,2013-01-17 05:43:00,
2013-01-16 23:53:00,32.0,28.0,30.16,WSW,244,0.0,0.0,84,0.00,,,0.02,,2013-01-17 05:53:00,